Home > Weather > Nijmegen > Past weeks

Flag for Netherlands Past Weather in Nijmegen, Netherlands — Yesterday and Last 2 Weeks

Now
70 °F

Passing clouds.


Feels Like: 70 °F
Forecast: 63 / 79 °F
Wind: 12 mph from Northeast

Location: Volkel

Current Time: Aug 27, 2016 at 10:22:55 AM

Latest Report: Aug 27, 2016 at 9:55 AM


Visibility: N/A

Pressure: 30.09 "Hg

Humidity: 73%

Dew Point: 61 °F

Location of NijmegenLocation

Past Weather in Nijmegen — Graph

°F

Nijmegen Temperature Yesterday

Maximum temperature yesterday: 84 °F (at 1:55 PM)
Minimum temperature yesterday: 66 °F (at 5:55 AM)
Average temperature yesterday: 74 °F

High & Low Weather Summary for the Past Weeks

 TemperatureHumidityPressure
High91 °F (Aug 25, 4:25 PM)100% (Aug 12, 8:25 AM)30.33 "Hg (Aug 12, 8:25 AM)
Low50 °F (Aug 18, 5:55 AM)34% (Aug 17, 3:55 PM)29.77 "Hg (Aug 19, 1:55 PM)
Average67 °F74%30.06 "Hg
* Reported Aug 12 8:25 AM — Aug 27 8:55 AM, Nijmegen, Weather by CustomWeather, © 2016

Note: Actual official high and low records may vary slightly from our data, if they occured in-between our weather recording intervals... More about our weather records

Advertising

Nijmegen Weather History for the Previous 24 Hours

Scroll right to see more
 ConditionsComfort  
Time TempWeatherWind HumidityBarometerVisibility
8:55 AM
Sat, Aug 27
68 °FPassing clouds.10 mph73%30.09 "HgN/A
8:25 AM66 °FPassing clouds.10 mph78%30.09 "HgN/A
7:55 AM64 °FPassing clouds.9 mph83%30.09 "HgN/A
7:25 AM64 °FPassing clouds.9 mph83%30.09 "HgN/A
6:55 AM64 °FPassing clouds.9 mph83%30.09 "HgN/A
6:25 AM64 °FPassing clouds.8 mph88%30.09 "HgN/A
5:55 AM63 °FPassing clouds.6 mph94%30.09 "HgN/A
5:25 AM64 °FPassing clouds.6 mph83%30.09 "HgN/A
4:55 AM64 °FPassing clouds.6 mph83%30.09 "HgN/A
4:25 AM64 °FPassing clouds.6 mph83%30.09 "HgN/A
3:55 AM64 °FPassing clouds.8 mph88%30.09 "HgN/A
3:25 AM64 °FPassing clouds.7 mph94%30.09 "HgN/A
2:55 AM64 °FMostly cloudy.5 mph88%30.09 "HgN/A
2:25 AM64 °FMostly cloudy.5 mph88%30.09 "HgN/A
1:55 AM64 °FPartly cloudy.5 mph83%30.09 "HgN/A
1:25 AM64 °FPartly cloudy.5 mph83%30.09 "HgN/A
12:55 AM64 °FPartly cloudy.5 mph83%30.09 "HgN/A
12:25 AM66 °FPartly cloudy.5 mph78%30.09 "HgN/A
11:55 PM
Fri, Aug 26
66 °FPartly cloudy.5 mph78%30.09 "HgN/A
11:25 PM68 °FPassing clouds.5 mph73%30.09 "HgN/A
10:55 PM68 °FPassing clouds.5 mph73%30.09 "HgN/A
10:25 PM70 °FPassing clouds.5 mph73%30.09 "HgN/A
9:55 PM70 °FPassing clouds.6 mph73%30.07 "HgN/A
9:25 PM72 °FPassing clouds.6 mph73%30.07 "HgN/A
8:55 PM73 °FPartly sunny.7 mph74%30.07 "HgN/A
8:25 PM75 °FPartly sunny.8 mph74%30.07 "HgN/A
7:55 PM75 °FPartly sunny.6 mph74%30.04 "HgN/A
7:25 PM77 °FOvercast.7 mph69%30.04 "HgN/A
6:55 PM79 °FWarm.7 mph70%30.04 "HgN/A
6:25 PM81 °FWarm.7 mph66%30.04 "HgN/A
5:55 PM82 °FWarm.6 mph62%30.04 "HgN/A
5:25 PM82 °FWarm.6 mph62%30.04 "HgN/A
4:55 PM82 °FPassing clouds.7 mph62%30.04 "HgN/A
4:25 PM82 °FWarm.7 mph62%30.04 "HgN/A
3:55 PM84 °FWarm.7 mph58%30.04 "HgN/A
3:25 PM84 °FPassing clouds.6 mph58%30.04 "HgN/A
2:55 PM82 °FWarm.8 mph62%30.04 "HgN/A
2:25 PM84 °FWarm.7 mph58%30.04 "HgN/A
1:55 PM84 °FScattered clouds.7 mph55%30.01 "HgN/A
1:25 PM82 °FPassing clouds.5 mph62%30.01 "HgN/A
12:55 PM81 °FWarm.6 mph66%30.01 "HgN/A
12:25 PM81 °FWarm.5 mph62%30.01 "HgN/A
11:55 AM81 °FPassing clouds.5 mph66%30.01 "HgN/A
11:25 AM79 °FHaze.7 mph65%30.01 "Hg5 mi
10:55 AM77 °FHaze.7 mph69%30.01 "Hg4 mi
10:25 AM77 °FHaze.7 mph69%29.98 "Hg6 mi
Weather by CustomWeather, © 2016

See weather overviewHow to use our weather pages